RH
70 67 67 67 68 69 70 70 70 71 70 64 51 41 36 32 34 36 43 49 47 42 37 44 57 71 79 80 81 78 72 70 75 82 84 85 85 80 65 58 63 55 44 40 30 27 26 22 23 23 24 21
72 70 70 71 74 74 76 76 76 73 59 44 31 27 26 27 36 40 45 48 43 39 35 34 35 47 65 72 76 75 69 63 64 71 77 80 79 76 63 55 60 49 43 50 38 30 29 24 27 28 27 25
74 74 75 76 75 73 72 70 70 60 40 27 25 30 31 36 51 53 53 52 48 45 42 40 33 36 50 58 66 69 65 57 58 61 68 75 71 71 64 52 53 44 39 51 45 32 32 29 30 33 32 30
66 62 57 52 48 46 43 40 39 34 31 33 35 45 46 46 56 59 59 55 50 48 46 44 39 38 43 49 56 59 55 50 54 59 63 67 65 65 58 44 42 40 40 54 55 39 33 34 32 30 30 30
37 37 37 36 30 27 26 27 28 27 39 47 47 61 59 50 53 57 60 55 50 50 47 45 43 42 43 47 55 55 49 44 49 57 62 63 62 59 53 43 36 34 37 46 53 46 36 35 33 28 25 24
30 32 42 44 36 32 32 37 39 37 48 54 55 67 63 53 55 54 52 51 50 50 47 46 45 45 44 47 54 53 47 44 45 54 63 64 63 60 53 45 38 34 34 33 37 43 38 34 34 31 24 20
42 44 48 44 37 37 41 44 48 47 51 55 58 63 58 53 53 50 46 46 50 50 47 47 45 44 44 45 49 46 43 43 43 49 57 58 58 56 48 41 40 38 36 33 32 35 33 32 32 30 25 20
45 45 45 42 37 40 44 46 51 54 53 53 53 53 52 51 51 49 46 46 50 49 47 46 45 43 43 42 43 42 42 43 42 43 44 44 46 46 42 39 40 39 37 36 35 34 32 31 30 28 26 22
38 35 37 40 40 42 45 47 52 56 54 50 48 47 48 47 48 47 46 48 48 46 45 44 43 44 42 40 39 41 41 41 41 41 39 38 40 41 41 40 39 39 39 38 38 37 35 34 33 30 29 25
37 37 40 42 43 45 46 47 51 53 50 48 47 47 47 44 44 44 43 45 44 43 43 43 43 43 43 41 40 41 40 39 39 39 39 39 39 39 40 40 39 40 40 39 39 40 38 37 36 35 33 30
41 41 43 44 44 44 45 47 50 50 49 48 46 45 45 44 44 44 45 45 44 44 43 43 44 45 45 44 43 42 40 40 39 38 39 40 39 38 38 39 39 40 40 39 40 40 40 39 38 38 36 35
44 43 43 43 42 42 43 44 46 48 47 43 37 36 38 38 38 40 41 41 41 39 38 38 39 41 44 45 44 42 42 42 41 40 40 40 39 39 39 40 41 40 39 39 40 40 40 39 39 39 38 38
42 41 40 39 39 39 39 40 42 42 41 38 35 36 37 36 35 36 36 36 36 34 34 33 33 38 43 45 43 42 44 45 45 43 42 41 42 41 39 40 42 41 41 41 40 40 40 39 40 40 40 39
39 39 38 38 37 38 38 40 41 42 45 45 45 45 43 38 36 39 39 37 35 32 32 32 34 42 46 47 46 46 47 48 48 48 47 46 45 43 42 43 45 45 46 46 43 42 42 41 40 40 40 40
40 40 40 41 40 40 41 42 43 46 49 49 48 47 44 38 36 42 44 42 38 33 31 30 38 48 51 51 52 53 52 51 52 51 51 51 48 47 47 48 48 48 49 48 46 45 45 44 43 42 41 40
39 39 40 41 42 42 43 43 44 46 47 47 47 46 44 36 36 45 50 50 45 36 32 34 45 53 54 56 55 56 56 55 55 54 53 51 47 47 49 48 47 48 47 48 49 47 47 46 45 44 42 41
37 37 37 37 40 41 42 42 43 45 45 46 46 45 43 37 36 44 51 56 49 38 33 38 52 58 57 58 58 58 58 58 57 55 52 48 46 48 50 51 52 52 51 50 50 48 48 47 46 46 44 44
40 38 36 36 37 38 40 41 41 44 45 45 44 44 43 39 38 42 49 56 48 35 31 36 49 57 58 57 58 59 60 59 55 51 51 52 53 55 56 57 56 55 54 52 51 50 50 49 48 47 45 44
47 44 41 40 39 37 38 39 39 42 44 45 44 43 43 40 41 42 44 50 42 28 29 36 45 53 56 55 56 58 59 56 50 50 55 58 59 60 59 59 58 58 58 56 55 53 51 51 50 49 48 47
50 47 45 44 41 40 38 38 40 40 41 43 44 44 43 43 48 47 43 44 34 20 25 33 40 49 51 50 52 53 54 51 48 52 56 57 59 59 58 59 58 57 55 53 53 53 52 53 52 52 51 49
50 48 47 45 42 40 38 38 40 41 41 42 44 45 42 43 49 49 47 42 27 18 23 28 33 42 45 46 48 47 47 47 47 51 52 53 55 53 52 52 52 51 51 54 55 55 54 54 54 53 52 50
52 50 49 47 45 43 40 38 38 39 40 40 41 41 37 35 37 42 43 34 23 20 24 26 32 41 46 47 46 45 46 44 44 46 46 47 47 45 47 47 49 51 52 54 54 53 53 54 55 55 54 53
52 51 50 48 46 45 42 40 38 38 38 38 36 35 32 26 25 31 30 23 22 25 30 36 41 48 52 51 50 50 49 45 43 45 45 45 45 45 47 48 49 50 50 51 50 50 49 49 50 51 52 51
52 50 49 48 45 44 43 40 38 38 39 38 36 34 30 25 25 25 23 24 27 30 39 50 54 57 59 55 54 50 39 33 36 41 42 41 41 43 46 49 50 50 50 49 48 47 47 48 49 49 50 50
51 49 49 49 44 43 43 39 36 37 39 36 34 32 29 30 31 27 30 37 38 37 42 54 60 61 60 55 50 35 18 21 31 35 35 35 36 40 45 48 50 51 49 49 52 51 49 45 43 44 46 45
49 47 49 49 44 41 42 39 34 35 38 35 33 31 29 34 34 32 39 42 43 44 44 54 62 62 60 54 46 26 11 21 31 30 33 35 37 38 41 45 46 45 45 53 57 53 55 51 45 45 41 38
47 45 45 45 42 39 40 39 35 35 38 36 34 33 29 29 27 32 42 41 43 45 42 52 60 60 59 55 46 25 14 26 31 31 37 39 38 37 38 39 39 37 39 48 52 54 66 65 56 53 45 41
44 42 41 40 38 36 38 39 34 33 38 38 36 33 29 24 21 28 39 39 39 36 35 44 50 53 54 51 42 22 18 34 36 37 42 39 38 37 38 39 38 36 34 39 49 60 71 68 67 70 58 51
44 40 38 38 35 33 36 38 34 34 39 40 36 33 30 25 19 25 33 34 33 29 29 35 40 44 45 43 34 16 22 39 40 42 43 38 38 36 38 43 41 38 35 37 44 52 63 73 85 80 58 53
45 41 38 38 34 33 38 40 36 35 41 42 37 33 32 26 20 23 28 29 28 26 28 31 35 38 37 36 27 17 30 42 43 43 39 37 39 37 37 41 42 40 37 37 34 33 45 60 70 65 56 62
44 42 38 38 34 32 37 38 34 35 41 43 39 35 33 27 22 24 27 27 26 27 29 31 33 33 33 33 24 25 40 46 43 40 37 38 40 38 37 38 43 45 42 40 35 34 40 44 46 49 56 66
Wind_Speed
13 12 11 11 10 10 10 9 9 10 10 9 7 6 5 6 6 5 5 7 7 7 8 8 8 8 8 8 8 8 9 9 9 9 9 10 10 11 12 12 12 11 10 11 12 12 11 10 8 8 7 9
14 13 12 12 11 11 10 9 9 8 7 5 5 5 6 7 8 7 6 8 8 9 11 12 11 9 8 8 8 9 10 10 10 10 10 10 11 12 13 12 12 10 8 10 12 12 11 8 6 6 7 9
15 14 12 11 10 10 8 7 6 4 3 4 4 5 7 8 9 8 6 7 9 11 12 15 15 11 10 9 9 9 10 11 11 10 10 11 11 12 12 11 10 9 9 10 12 13 11 8 6 6 8 10
12 11 9 8 6 5 4 3 3 3 3 4 4 6 7 8 10 9 6 5 8 12 14 17 15 12 13 12 10 10 11 13 12 10 10 10 11 12 11 10 9 9 10 11 11 13 11 7 7 8 11 11
8 7 6 5 4 3 3 3 5 4 5 6 6 7 8 10 11 9 5 4 8 12 16 16 14 13 15 13 11 11 13 15 12 9 10 10 10 12 11 10 11 11 11 11 10 12 12 9 8 10 12 12
7 6 6 5 5 5 5 6 7 5 6 7 7 7 8 9 9 7 6 6 8 11 15 14 13 14 14 13 11 10 14 15 12 10 10 11 11 12 12 12 13 13 13 13 12 11 12 12 11 13 13 12
7 6 6 7 8 7 7 8 9 6 4 3 4 5 5 7 7 8 10 8 7 10 13 13 13 14 13 12 11 11 14 14 13 12 11 12 12 12 13 14 14 15 16 16 15 13 13 13 14 15 15 13
9 7 6 5 7 7 6 7 6 4 3 3 4 4 5 6 6 8 9 7 8 10 11 11 12 12 12 12 12 13 15 14 13 12 14 14 12 12 13 15 16 17 18 18 17 15 13 14 15 15 15 14
8 6 6 6 7 8 8 7 6 5 5 6 5 5 7 7 7 9 9 8 8 9 9 9 11 12 13 14 14 15 15 15 13 13 16 15 13 13 14 16 17 17 18 19 18 17 16 16 16 16 16 15
7 7 9 10 10 10 10 10 10 9 7 7 6 5 7 8 9 10 10 9 8 9 9 9 11 12 14 14 14 14 15 15 14 14 15 14 12 13 14 16 17 17 18 20 20 19 18 19 18 18 18 17
12 11 12 13 13 14 13 12 12 11 9 8 7 7 7 9 11 11 10 10 10 11 12 11 11 11 13 14 13 12 14 15 14 14 13 11 11 12 14 16 16 17 18 19 20 19 20 20 19 19 19 18
17 16 15 14 15 15 15 14 13 13 12 11 11 11 11 12 13 13 13 13 13 14 14 13 13 11 12 13 13 12 13 15 14 12 12 12 14 14 15 17 17 17 17 18 19 20 21 21 20 20 19 19
20 18 18 17 17 17 16 16 16 15 14 13 13 14 15 16 16 15 15 15 16 16 15 15 13 11 13 14 14 14 14 15 13 11 12 14 15 15 17 18 18 19 19 19 18 19 21 21 20 21 21 19
21 20 20 20 19 17 17 18 18 17 16 15 14 15 16 19 19 16 16 16 17 17 16 15 13 12 13 15 15 16 16 15 14 13 13 14 16 17 19 18 18 19 19 19 18 18 19 21 20 21 21 21
22 21 21 21 20 19 18 17 17 18 17 15 14 14 15 20 18 15 15 16 17 18 17 15 13 12 14 15 15 15 16 16 16 16 16 16 17 18 18 19 19 20 21 21 19 18 18 19 19 19 21 21
24 23 22 21 20 19 17 16 16 16 15 14 13 12 15 20 17 14 14 15 17 18 17 15 12 12 14 15 16 15 16 16 17 17 18 19 19 19 20 21 21 20 21 22 21 19 19 19 19 20 21 22
25 24 23 22 21 19 16 15 15 14 13 11 11 12 16 19 17 14 14 15 16 17 16 13 12 12 13 15 16 16 17 17 18 19 20 20 20 19 20 21 20 20 20 20 20 20 20 20 20 21 21 22
23 22 21 21 20 20 18 17 15 13 11 10 11 13 17 19 17 14 14 15 17 17 15 13 11 12 13 15 17 17 18 18 19 19 19 19 18 19 19 20 19 19 20 20 21 21 21 21 21 22 22 23
22 20 17 16 16 16 16 17 16 14 12 11 12 14 17 19 17 15 15 16 18 17 15 12 12 12 13 15 16 17 17 18 18 17 16 16 18 19 19 19 19 19 20 21 22 23 23 23 23 24 24 23
21 20 18 15 14 14 12 15 17 16 13 13 14 15 17 17 16 16 16 17 18 17 14 13 12 12 13 15 16 16 16 16 15 15 16 16 17 20 20 20 21 21 22 23 24 25 25 25 25 25 26 25
20 20 20 18 17 16 12 12 16 17 14 14 14 15 17 16 16 17 17 18 18 16 15 13 12 12 12 14 14 15 15 14 13 14 17 17 17 19 21 21 22 22 23 24 25 25 26 26 25 26 26 27
21 20 21 20 19 19 16 11 12 15 15 14 15 16 16 16 17 17 17 18 18 16 15 13 12 12 12 13 13 14 14 13 13 14 15 17 17 17 19 20 21 22 23 24 25 26 26 25 25 26 26 26
22 22 22 23 22 21 20 16 13 13 14 15 16 16 17 18 18 17 18 17 16 15 14 13 12 12 12 13 13 13 14 13 14 14 14 17 17 17 17 17 18 20 21 24 26 26 26 25 25 25 25 26
23 24 24 24 25 23 21 21 18 15 14 14 16 17 18 18 17 17 17 16 14 13 13 12 13 12 12 13 13 15 15 15 14 14 16 17 18 19 18 17 17 17 20 24 25 25 25 24 24 24 24 24
24 25 23 23 24 22 20 20 20 17 13 14 15 17 17 15 16 17 16 15 15 13 12 13 13 13 14 14 15 17 17 15 14 14 16 17 18 18 19 18 16 16 20 22 20 21 24 26 24 21 20 21
23 23 21 19 20 20 18 17 19 16 12 14 16 16 14 12 15 15 13 14 15 14 13 13 14 14 15 16 17 19 17 15 15 15 15 17 18 18 18 18 16 16 17 16 16 18 18 19 19 15 14 17
22 21 19 17 18 18 16 15 17 14 12 14 15 14 13 12 14 13 12 13 13 13 12 13 14 14 15 17 18 20 18 16 16 16 16 17 18 19 19 18 17 17 16 16 18 16 9 7 9 9 9 12
20 21 19 17 18 18 15 15 17 14 12 13 14 14 13 14 13 12 13 13 11 12 12 13 14 13 14 16 18 19 18 16 16 16 17 18 18 19 19 18 17 17 16 17 16 10 6 6 6 4 5 14
20 20 20 18 19 19 15 14 16 14 12 13 14 15 14 15 14 12 14 13 11 13 13 14 14 13 15 16 19 19 16 16 16 15 17 18 18 18 17 17 18 18 16 16 14 10 7 5 3 3 8 16
19 20 19 18 19 19 15 14 14 13 14 14 15 15 14 16 14 12 14 13 12 13 14 15 15 14 16 17 20 19 16 15 14 15 17 17 17 17 17 17 17 18 17 17 18 16 12 9 7 8 11 10
18 20 19 17 17 16 14 14 14 15 15 14 16 15 15 16 15 12 14 14 13 13 14 15 15 15 16 17 20 19 15 14 15 16 17 15 16 16 16 16 16 16 17 18 18 17 17 17 16 15 12 6
Wind_Direction
127 128 126 126 124 123 120 118 112 102 97 93 86 74 58 49 37 35 41 38 40 41 36 37 34 31 27 22 17 12 11 9 5 360 356 352 349 345 344 347 348 345 347 350 353 357 0 3 358 353 357 7
126 126 124 125 123 121 119 114 107 103 102 85 63 45 30 26 19 17 19 22 24 22 24 23 17 17 16 10 6 1 359 359 357 353 347 345 343 341 341 345 345 344 0 1 1 6 4 5 2 354 359 360
136 133 132 131 132 129 124 117 109 99 80 49 44 35 22 20 19 14 10 16 11 5 9 8 5 9 10 4 357 351 350 352 350 347 344 339 339 340 341 346 350 352 8 2 359 9 10 5 358 355 356 351
148 142 140 138 141 137 127 109 67 34 31 34 41 24 19 22 10 358 350 360 3 358 358 358 1 6 7 4 357 352 352 351 347 344 344 339 339 343 344 354 1 1 4 354 347 356 5 2 350 354 351 344
134 130 123 105 102 91 69 49 25 22 30 23 22 12 11 12 1 356 351 348 358 356 353 355 2 4 5 5 359 356 354 352 348 344 344 342 342 346 349 355 358 358 356 347 338 341 349 345 336 344 344 340
100 107 98 64 51 46 38 36 29 36 42 24 20 17 5 3 2 5 4 360 360 355 352 355 1 1 2 359 351 349 351 353 352 345 341 338 337 340 345 346 346 349 347 341 337 331 333 332 327 330 333 336
79 76 66 46 35 35 32 35 41 53 56 31 22 21 357 354 3 1 356 358 356 350 351 354 355 359 2 356 345 344 350 352 351 348 342 337 333 334 340 340 338 338 335 334 334 327 324 325 322 321 326 333
85 75 63 50 40 45 47 47 64 84 71 51 37 35 16 5 18 14 6 5 359 355 356 355 358 3 5 358 349 346 349 347 343 343 341 340 336 333 335 334 331 328 326 329 331 328 325 324 320 319 324 330
93 84 83 82 70 69 67 66 87 89 63 58 57 54 42 36 46 43 41 43 30 21 17 8 6 4 355 350 349 346 345 343 339 335 335 336 336 331 327 325 324 322 322 325 327 326 327 326 323 322 327 331
90 85 83 81 80 79 75 71 78 75 67 65 56 51 43 43 48 48 51 49 38 28 21 11 5 359 352 347 345 344 340 338 333 328 329 328 326 326 321 318 318 318 319 320 320 320 322 324 322 322 326 329
86 85 82 78 77 76 74 74 74 69 65 56 41 37 32 31 30 28 30 24 16 11 7 2 356 354 353 349 345 341 336 332 323 317 321 319 313 314 314 313 312 313 315 316 315 313 314 316 316 316 320 323
84 84 81 78 75 71 68 66 63 58 54 45 41 41 34 29 22 17 15 10 4 358 354 353 348 341 340 340 338 335 330 330 323 308 306 305 302 305 308 306 304 305 308 309 307 306 307 307 306 307 309 313
77 77 75 69 67 64 60 56 49 44 42 39 39 38 32 26 20 15 10 4 357 351 346 345 343 334 330 328 326 323 321 325 322 306 298 296 294 301 308 303 297 298 303 305 301 297 298 298 299 299 299 301
70 71 69 64 62 59 57 55 49 44 41 38 33 27 22 19 17 13 5 357 353 348 343 339 336 333 331 326 321 318 314 312 311 304 299 296 296 303 309 306 299 297 299 304 303 293 290 292 294 294 292 292
62 61 61 60 59 59 57 55 53 51 48 42 33 23 14 12 12 8 358 350 347 346 343 339 333 331 333 328 321 316 307 301 301 300 299 300 301 304 306 304 302 298 296 297 298 293 287 287 289 290 287 286
57 55 54 52 50 50 51 51 48 45 43 36 25 12 5 6 7 1 351 344 342 343 342 339 332 330 334 331 323 314 306 300 297 296 296 299 300 299 298 300 301 298 296 294 292 291 290 288 288 288 285 283
55 54 54 51 47 42 39 37 34 29 25 19 9 354 355 0 0 355 345 338 338 339 339 335 328 327 329 328 322 313 308 303 300 299 299 301 302 300 299 300 300 297 295 294 292 292 292 291 289 288 286 283
50 51 52 51 47 43 36 29 22 16 8 358 355 346 348 354 353 349 339 334 335 335 337 331 322 322 322 323 320 312 309 307 305 306 306 308 308 306 304 302 300 297 295 292 290 289 288 288 286 286 286 285
40 41 44 44 42 41 37 31 21 11 2 351 347 342 346 348 345 342 335 331 332 332 333 328 320 318 318 318 315 312 310 309 308 307 308 310 313 310 305 301 297 296 296 293 290 287 286 285 284 284 283 284
29 31 33 34 34 32 31 32 22 9 358 348 343 341 345 345 339 336 331 331 333 332 330 326 321 315 314 315 313 312 309 309 308 306 306 305 310 313 309 305 301 297 297 296 293 290 287 285 283 282 280 280
22 24 26 26 27 27 28 33 23 9 354 345 342 340 342 340 335 331 328 331 333 332 331 328 321 316 315 314 312 311 309 309 306 305 308 306 305 309 311 309 305 303 301 299 297 294 292 290 287 285 283 281
19 18 19 20 20 21 25 29 19 1 349 345 342 339 339 336 332 329 327 331 331 330 332 331 325 321 317 314 312 311 309 308 305 303 309 312 309 308 310 311 308 307 305 302 300 299 297 295 292 288 285 284
16 14 13 14 13 13 16 17 11 353 338 334 332 330 331 330 328 327 326 330 330 330 333 334 331 325 318 316 316 315 314 313 313 313 315 318 317 312 310 309 308 307 306 305 303 301 299 296 292 289 285 284
13 12 11 10 10 9 9 8 5 356 341 329 325 323 324 326 327 327 331 335 335 333 335 337 332 324 317 318 321 323 324 322 322 324 323 322 321 319 315 309 307 306 309 311 308 306 302 297 293 289 285 282
15 14 11 8 8 6 2 1 358 354 346 332 325 322 325 329 327 331 339 342 341 339 337 336 328 321 319 319 325 330 330 328 326 324 323 324 323 324 324 319 313 311 318 322 319 315 311 304 299 294 288 283
16 16 12 4 2 359 353 352 350 346 334 323 321 322 329 329 324 333 341 338 340 339 337 335 325 320 320 319 326 333 333 331 330 328 331 333 331 329 327 323 319 318 325 331 325 319 312 308 308 303 292 286
13 11 8 0 355 352 345 340 343 339 319 317 322 324 329 325 324 338 339 334 337 337 334 331 324 322 319 318 328 335 335 334 334 336 338 337 335 334 330 324 321 321 326 328 323 319 306 306 318 307 302 303
6 4 1 355 349 347 341 330 336 335 318 319 326 328 330 326 330 343 338 330 333 336 333 327 325 325 320 320 330 335 336 335 334 337 336 332 333 336 334 328 323 322 323 324 326 328 307 305 311 286 332 331
359 357 355 350 345 345 338 329 334 334 325 326 329 330 331 328 331 341 336 325 322 329 330 325 324 325 322 324 330 335 336 332 331 333 329 328 331 334 333 328 324 321 320 320 318 316 309 307 301 285 331 328
351 352 351 346 342 340 332 327 330 330 326 325 328 330 327 326 331 336 333 326 321 327 328 324 323 324 322 325 332 337 334 329 331 328 325 327 329 328 328 326 323 320 319 316 311 309 305 297 291 302 320 323
346 347 347 343 338 333 326 322 322 323 321 319 324 326 322 326 333 334 329 324 323 329 330 325 323 324 323 325 334 337 331 329 328 324 324 325 324 323 324 325 321 318 320 318 314 313 311 306 304 306 312 309